This is the latest recevied weather packets stored in our database for station/object SP9KB-13. If no packets are shown the sender has not sent any weather packets the latest 10 day(s).
| Time | Temp. | Humidity | Pressure | Rain* | Wind** | Luminosity | Snow |
|---|---|---|---|---|---|---|---|
| 1777797911 | 17.22° C | 42% | 1002.9 hPa | 0 mm | - | - | - |
| 1777797610 | 17.22° C | 42% | 1002.9 hPa | 0 mm | - | - | - |
| 1777797310 | 16.67° C | 45% | 1002.9 hPa | 0 mm | - | - | - |
| 1777797009 | 16.67° C | 41% | 1003 hPa | 0 mm | - | - | - |
| 1777796708 | 16.67° C | 43% | 1002.9 hPa | 0 mm | - | - | - |
| 1777796408 | 17.22° C | 43% | 1003 hPa | 0 mm | - | - | - |
| 1777796107 | 16.67° C | 41% | 1003 hPa | 0 mm | - | - | - |
| 1777795806 | 17.22° C | 41% | 1003 hPa | 0 mm | - | - | - |
| 1777795506 | 16.67° C | 45% | 1003 hPa | 0 mm | - | - | - |
| 1777795205 | 16.67° C | 43% | 1002.9 hPa | 0 mm | - | - | - |
| 1777794904 | 16.11° C | 44% | 1002.9 hPa | 0 mm | - | - | - |
| 1777794604 | 16.67° C | 44% | 1002.9 hPa | 0 mm | - | - | - |
| 1777794303 | 16.67° C | 45% | 1003 hPa | 0 mm | - | - | - |
| 1777794003 | 16.67° C | 44% | 1003.1 hPa | 0 mm | - | - | - |
| 1777793702 | 16.11° C | 45% | 1003 hPa | 0 mm | - | - | - |
| 1777793402 | 16.11° C | 44% | 1003 hPa | 0 mm | - | - | - |
| 1777793101 | 16.11° C | 44% | 1003 hPa | 0 mm | - | - | - |
| 1777792800 | 16.11° C | 45% | 1002.9 hPa | 0 mm | - | - | - |
| 1777792500 | 16.11° C | 44% | 1003 hPa | 0 mm | - | - | - |
| 1777792199 | 15.56° C | 46% | 1003.2 hPa | 0 mm | - | - | - |
| 1777791899 | 15° C | 48% | 1003.1 hPa | 0 mm | - | - | - |
| 1777791598 | 15° C | 48% | 1003.2 hPa | 0 mm | - | - | - |
| 1777791298 | 15° C | 46% | 1003.1 hPa | 0 mm | - | - | - |
| 1777790997 | 15° C | 46% | 1003.1 hPa | 0 mm | - | - | - |
| 1777790697 | 16.11° C | 48% | 1003 hPa | 0 mm | - | - | - |
* Rain latest hour (hover to see other rain measurements)
** Current wind speed in m/s (hover to see current wind gust speed)